Wetterdaten: Woche 29.11.21 - 05.12.21 (KW48)
Datum Zeit Temp. Aussen Temp. o. S. Temp +5cm Feuchte Auss Luftdruck Regen Sonnenschein Regendauer Solar Windben Empfang
29.11.2021 00:00 -0,1 C -1,0 C -1,9 C 96 % 1002,8 hPa 0,0 l/m 0,00 h 0,00 h 0 W/m 3,0 km/h (1 Bft) 96,79 %
29.11.2021 01:00 -0,4 C -1,1 C -1,9 C 96 % 1003,3 hPa 0,0 l/m 0,00 h 0,00 h 0 W/m 3,4 km/h (1 Bft) 98,29 %
29.11.2021 02:00 -0,5 C -1,1 C -1,9 C 96 % 1003,8 hPa 0,0 l/m 0,00 h 0,00 h 0 W/m 4,9 km/h (1 Bft) 96,56 %
29.11.2021 03:00 -0,3 C -0,9 C -1,8 C 96 % 1004,1 hPa 0,0 l/m 0,00 h 0,00 h 0 W/m 6,5 km/h (2 Bft) 95,87 %
29.11.2021 04:00 -0,1 C -0,6 C -1,7 C 96 % 1004,3 hPa 0,0 l/m 0,00 h 0,00 h 0 W/m 6,4 km/h (2 Bft) 97,72 %
29.11.2021 05:00 0,0 C -0,6 C -1,3 C 96 % 1004,8 hPa 0,0 l/m 0,00 h 0,00 h 0 W/m 6,7 km/h (2 Bft) 98,65 %
29.11.2021 06:00 0,1 C -0,4 C -1,1 C 96 % 1005,3 hPa 0,0 l/m 0,00 h 0,00 h 0 W/m 9,2 km/h (2 Bft) 95,04 %
29.11.2021 07:00 0,5 C 0,0 C -0,7 C 96 % 1005,8 hPa 0,0 l/m 0,00 h 0,00 h 0 W/m 11,3 km/h (2 Bft) 97,15 %
29.11.2021 08:00 0,6 C 0,0 C -0,6 C 95 % 1006,2 hPa 0,0 l/m 0,00 h 0,00 h 11 W/m 13,1 km/h (3 Bft) 98,50 %
29.11.2021 09:00 0,9 C 0,6 C -0,3 C 95 % 1006,7 hPa 0,0 l/m 0,07 h 0,00 h 42 W/m 13,2 km/h (3 Bft) 96,87 %
29.11.2021 10:00 1,7 C 1,5 C 0,6 C 95 % 1007,3 hPa 0,2 l/m 0,00 h 0,23 h 53 W/m 12,9 km/h (3 Bft) 97,30 %
29.11.2021 11:00 2,5 C 2,2 C 1,1 C 95 % 1007,8 hPa 0,0 l/m 0,00 h 0,27 h 47 W/m 13,8 km/h (3 Bft) 99,15 %
29.11.2021 12:00 3,1 C 3,1 C 1,9 C 95 % 1008,3 hPa 0,0 l/m 0,00 h 0,00 h 68 W/m 11,1 km/h (2 Bft) 96,48 %
29.11.2021 13:00 3,9 C 4,0 C 2,7 C 94 % 1008,7 hPa 0,0 l/m 0,00 h 0,00 h 77 W/m 11,6 km/h (2 Bft) 97,58 %
29.11.2021 14:00 4,4 C 4,1 C 2,8 C 93 % 1009,1 hPa 0,0 l/m 0,00 h 0,00 h 40 W/m 9,8 km/h (2 Bft) 97,85 %
29.11.2021 15:00 4,6 C 4,2 C 2,9 C 92 % 1009,8 hPa 0,0 l/m 0,13 h 0,00 h 40 W/m 7,3 km/h (2 Bft) 97,81 %
29.11.2021 16:00 4,3 C 3,8 C 2,2 C 92 % 1010,6 hPa 0,0 l/m 0,00 h 0,00 h 7 W/m 1,8 km/h (1 Bft) 97,56 %
29.11.2021 17:00 4,3 C 3,8 C 2,4 C 93 % 1011,3 hPa 0,0 l/m 0,00 h 0,00 h 0 W/m 6,1 km/h (2 Bft) 97,24 %
29.11.2021 18:00 3,9 C 3,3 C 2,2 C 93 % 1011,8 hPa 0,0 l/m 0,00 h 0,00 h 0 W/m 6,5 km/h (2 Bft) 97,56 %
29.11.2021 19:00 3,7 C 3,1 C 1,9 C 94 % 1012,1 hPa 0,0 l/m 0,00 h 0,00 h 0 W/m 5,8 km/h (2 Bft) 95,51 %
29.11.2021 20:00 3,7 C 3,2 C 2,0 C 95 % 1012,3 hPa 0,0 l/m 0,00 h 0,10 h 0 W/m 7,0 km/h (2 Bft) 99,06 %
29.11.2021 21:00 4,1 C 3,8 C 2,2 C 95 % 1012,5 hPa 0,2 l/m 0,00 h 0,37 h 0 W/m 12,2 km/h (3 Bft) 96,80 %
29.11.2021 22:00 3,9 C 3,3 C 2,0 C 93 % 1012,7 hPa 0,0 l/m 0,00 h 0,00 h 0 W/m 12,6 km/h (3 Bft) 95,56 %
29.11.2021 23:00 3,5 C 2,9 C 1,7 C 92 % 1012,8 hPa 0,0 l/m 0,00 h 0,00 h 0 W/m 14,8 km/h (3 Bft) 96,66 %
30.11.2021 00:00 3,5 C 3,0 C 1,7 C 92 % 1012,4 hPa 0,0 l/m 0,00 h 0,00 h 0 W/m 17,1 km/h (3 Bft) 96,83 %
30.11.2021 01:00 3,3 C 2,8 C 1,7 C 92 % 1012,1 hPa 0,0 l/m 0,00 h 0,00 h 0 W/m 20,4 km/h (4 Bft) 96,17 %
30.11.2021 02:00 3,3 C 2,8 C 1,7 C 90 % 1011,5 hPa 0,0 l/m 0,00 h 0,00 h 0 W/m 21,8 km/h (4 Bft) 98,77 %
30.11.2021 03:00 3,3 C 2,6 C 0,9 C 89 % 1010,5 hPa 0,6 l/m 0,00 h 0,87 h 0 W/m 20,8 km/h (4 Bft) 94,74 %
30.11.2021 04:00 3,0 C 2,2 C 0,8 C 94 % 1009,0 hPa 1,0 l/m 0,00 h 0,57 h 0 W/m 26,6 km/h (4 Bft) 96,85 %
30.11.2021 05:00 3,6 C 3,0 C 1,5 C 96 % 1007,9 hPa 0,4 l/m 0,00 h 0,00 h 0 W/m 22,3 km/h (4 Bft) 96,30 %
30.11.2021 06:00 4,2 C 3,5 C 2,2 C 96 % 1007,3 hPa 0,4 l/m 0,00 h 0,40 h 0 W/m 22,6 km/h (4 Bft) 98,71 %
30.11.2021 07:00 5,0 C 4,3 C 3,1 C 97 % 1007,1 hPa 0,2 l/m 0,00 h 0,00 h 0 W/m 21,9 km/h (4 Bft) 86,94 %
30.11.2021 08:00 5,9 C 5,2 C 4,1 C 97 % 1006,8 hPa 0,6 l/m 0,00 h 0,10 h 7 W/m 22,0 km/h (4 Bft) 89,85 %
30.11.2021 09:00 6,4 C 5,7 C 4,7 C 98 % 1006,9 hPa 0,2 l/m 0,00 h 0,13 h 18 W/m 22,4 km/h (4 Bft) 97,93 %
30.11.2021 10:00 6,9 C 6,3 C 5,4 C 98 % 1006,6 hPa 0,6 l/m 0,00 h 0,77 h 30 W/m 24,4 km/h (4 Bft) 96,66 %
30.11.2021 11:00 7,5 C 6,9 C 6,1 C 98 % 1006,5 hPa 0,2 l/m 0,00 h 0,40 h 47 W/m 24,5 km/h (4 Bft) 97,65 %
30.11.2021 12:00 8,0 C 7,2 C 6,7 C 98 % 1006,6 hPa 0,4 l/m 0,00 h 0,13 h 40 W/m 23,0 km/h (4 Bft) 98,23 %
30.11.2021 13:00 8,2 C 7,4 C 7,2 C 98 % 1006,5 hPa 1,0 l/m 0,00 h 0,47 h 31 W/m 20,0 km/h (4 Bft) 96,44 %
30.11.2021 14:00 8,4 C 7,8 C 7,2 C 98 % 1006,3 hPa 0,6 l/m 0,00 h 0,23 h 28 W/m 20,0 km/h (4 Bft) 98,72 %
30.11.2021 15:00 8,6 C 7,8 C 7,6 C 98 % 1006,6 hPa 0,4 l/m 0,00 h 0,07 h 13 W/m 20,8 km/h (4 Bft) 97,26 %
30.11.2021 16:00 8,7 C 7,8 C 7,8 C 98 % 1007,0 hPa 0,6 l/m 0,00 h 0,47 h 8 W/m 18,9 km/h (3 Bft) 96,65 %
30.11.2021 17:00 8,7 C 7,8 C 7,8 C 98 % 1007,3 hPa 0,6 l/m 0,00 h 0,53 h 0 W/m 16,7 km/h (3 Bft) 97,51 %
30.11.2021 18:00 8,7 C 7,8 C 7,8 C 98 % 1007,3 hPa 0,4 l/m 0,00 h 0,30 h 0 W/m 17,5 km/h (3 Bft) 96,91 %
30.11.2021 19:00 8,7 C 7,8 C 7,8 C 98 % 1007,3 hPa 0,2 l/m 0,00 h 0,00 h 0 W/m 16,3 km/h (3 Bft) 97,38 %
30.11.2021 20:00 8,8 C 8,0 C 8,1 C 98 % 1007,1 hPa 0,2 l/m 0,00 h 0,03 h 0 W/m 15,7 km/h (3 Bft) 98,72 %
30.11.2021 21:00 8,9 C 8,3 C 8,3 C 98 % 1006,7 hPa 0,2 l/m 0,00 h 0,23 h 0 W/m 13,2 km/h (3 Bft) 94,57 %
30.11.2021 22:00 9,0 C 8,3 C 8,3 C 98 % 1006,0 hPa 0,2 l/m 0,00 h 0,13 h 0 W/m 14,4 km/h (3 Bft) 97,89 %
30.11.2021 23:00 9,2 C 8,3 C 8,3 C 98 % 1005,1 hPa 0,0 l/m 0,00 h 0,30 h 0 W/m 19,2 km/h (3 Bft) 99,28 %
01.12.2021 00:00 9,0 C 8,3 C 8,3 C 98 % 1004,2 hPa 0,2 l/m 0,00 h 0,27 h 0 W/m 25,2 km/h (4 Bft) 94,92 %
01.12.2021 01:00 8,8 C 8,3 C 7,9 C 98 % 1003,2 hPa 0,0 l/m 0,00 h 0,00 h 0 W/m 31,4 km/h (5 Bft) 98,93 %
01.12.2021 02:00 8,9 C 8,3 C 7,8 C 96 % 1001,9 hPa 0,0 l/m 0,00 h 0,00 h 0 W/m 34,9 km/h (5 Bft) 96,18 %
01.12.2021 03:00 8,8 C 8,3 C 7,6 C 94 % 1000,8 hPa 0,0 l/m 0,00 h 0,00 h 0 W/m 39,5 km/h (6 Bft) 97,22 %
01.12.2021 04:00 8,6 C 7,8 C 7,2 C 92 % 999,7 hPa 0,0 l/m 0,00 h 0,33 h 0 W/m 34,3 km/h (5 Bft) 97,87 %
01.12.2021 05:00 7,9 C 7,2 C 6,7 C 94 % 998,3 hPa 0,2 l/m 0,00 h 0,07 h 0 W/m 35,4 km/h (5 Bft) 98,08 %
01.12.2021 06:00 8,0 C 7,7 C 6,7 C 92 % 996,5 hPa 0,0 l/m 0,00 h 0,00 h 0 W/m 36,3 km/h (5 Bft) 95,84 %
01.12.2021 07:00 8,3 C 7,8 C 6,8 C 90 % 995,1 hPa 0,0 l/m 0,00 h 0,03 h 0 W/m 36,5 km/h (5 Bft) 97,27 %
01.12.2021 08:00 8,5 C 7,8 C 6,8 C 90 % 994,0 hPa 0,0 l/m 0,00 h 0,07 h 6 W/m 41,4 km/h (6 Bft) 97,30 %
01.12.2021 09:00 8,4 C 7,8 C 6,7 C 92 % 993,3 hPa 0,0 l/m 0,00 h 0,17 h 22 W/m 42,7 km/h (6 Bft) 97,72 %
01.12.2021 10:00 8,5 C 8,0 C 6,7 C 93 % 992,7 hPa 0,0 l/m 0,00 h 0,93 h 35 W/m 34,7 km/h (5 Bft) 96,51 %
01.12.2021 11:00 8,7 C 8,3 C 7,0 C 94 % 991,9 hPa 0,0 l/m 0,00 h 0,93 h 74 W/m 30,4 km/h (5 Bft) 99,05 %
01.12.2021 12:00 8,7 C 8,1 C 6,6 C 95 % 991,4 hPa 0,4 l/m 0,00 h 0,97 h 48 W/m 21,3 km/h (4 Bft) 96,10 %
01.12.2021 13:00 8,4 C 8,0 C 6,1 C 91 % 991,6 hPa 0,0 l/m 0,03 h 0,00 h 97 W/m 23,5 km/h (4 Bft) 96,45 %
01.12.2021 14:00 8,3 C 7,8 C 6,1 C 89 % 991,9 hPa 0,0 l/m 0,00 h 0,00 h 52 W/m 19,6 km/h (3 Bft) 98,54 %
01.12.2021 15:00 8,1 C 7,6 C 5,8 C 89 % 992,1 hPa 0,0 l/m 0,10 h 0,13 h 39 W/m 19,0 km/h (3 Bft) 96,80 %
01.12.2021 16:00 7,8 C 7,1 C 5,5 C 90 % 992,3 hPa 0,0 l/m 0,00 h 0,43 h 9 W/m 22,3 km/h (4 Bft) 95,66 %
01.12.2021 17:00 7,5 C 6,8 C 5,0 C 92 % 992,8 hPa 0,0 l/m 0,00 h 0,00 h 0 W/m 19,5 km/h (3 Bft) 99,50 %
01.12.2021 18:00 6,9 C 6,1 C 4,0 C 93 % 994,0 hPa 1,0 l/m 0,00 h 0,73 h 0 W/m 21,2 km/h (4 Bft) 94,21 %
01.12.2021 19:00 6,4 C 5,8 C 3,4 C 93 % 995,1 hPa 0,0 l/m 0,00 h 0,10 h 0 W/m 15,4 km/h (3 Bft) 98,44 %
01.12.2021 20:00 6,0 C 5,4 C 3,3 C 94 % 996,1 hPa 0,0 l/m 0,00 h 0,00 h 0 W/m 11,6 km/h (2 Bft) 97,05 %
01.12.2021 21:00 5,6 C 5,0 C 3,2 C 94 % 997,0 hPa 0,0 l/m 0,00 h 0,00 h 0 W/m 10,2 km/h (2 Bft) 96,16 %
01.12.2021 22:00 5,1 C 4,4 C 2,8 C 94 % 997,6 hPa 0,0 l/m 0,00 h 0,00 h 0 W/m 8,8 km/h (2 Bft) 96,66 %
01.12.2021 23:00 4,9 C 4,4 C 2,8 C 95 % 998,1 hPa 0,0 l/m 0,00 h 0,00 h 0 W/m 9,7 km/h (2 Bft) 96,88 %
02.12.2021 00:00 4,7 C 4,0 C 2,8 C 95 % 998,4 hPa 0,0 l/m 0,00 h 0,00 h 0 W/m 6,4 km/h (2 Bft) 97,09 %
02.12.2021 01:00 4,8 C 4,4 C 3,3 C 95 % 998,6 hPa 0,0 l/m 0,00 h 0,00 h 0 W/m 7,0 km/h (2 Bft) 95,37 %
02.12.2021 02:00 4,8 C 4,4 C 3,3 C 95 % 998,8 hPa 0,0 l/m 0,00 h 0,07 h 0 W/m 11,3 km/h (2 Bft) 98,85 %
02.12.2021 03:00 4,6 C 4,1 C 3,0 C 94 % 999,0 hPa 0,0 l/m 0,00 h 0,10 h 0 W/m 12,1 km/h (2 Bft) 98,22 %
02.12.2021 04:00 4,3 C 3,8 C 2,7 C 93 % 998,9 hPa 0,0 l/m 0,00 h 0,30 h 0 W/m 11,8 km/h (2 Bft) 95,59 %
02.12.2021 05:00 3,8 C 3,3 C 2,2 C 94 % 999,1 hPa 0,0 l/m 0,00 h 0,00 h 0 W/m 9,6 km/h (2 Bft) 98,44 %
02.12.2021 06:00 3,6 C 3,1 C 2,2 C 94 % 999,2 hPa 0,0 l/m 0,00 h 0,00 h 0 W/m 8,8 km/h (2 Bft) 96,91 %
02.12.2021 07:00 3,2 C 2,8 C 1,7 C 94 % 999,6 hPa 0,0 l/m 0,00 h 0,00 h 0 W/m 10,9 km/h (2 Bft) 98,43 %
02.12.2021 08:00 3,1 C 2,8 C 1,7 C 94 % 1000,3 hPa 0,0 l/m 0,03 h 0,35 h 13 W/m 13,0 km/h (3 Bft) 96,51 %
02.12.2021 09:00 2,8 C 2,7 C 1,7 C 94 % 1001,1 hPa 0,0 l/m 0,03 h 0,00 h 40 W/m 12,0 km/h (2 Bft) 98,72 %
02.12.2021 10:00 3,1 C 3,3 C 2,0 C 94 % 1001,8 hPa 0,0 l/m 0,37 h 0,00 h 138 W/m 12,9 km/h (3 Bft) 97,65 %
02.12.2021 11:00 3,7 C 3,9 C 2,5 C 91 % 1002,1 hPa 0,0 l/m 0,30 h 0,00 h 134 W/m 15,9 km/h (3 Bft) 98,72 %
02.12.2021 12:00 4,0 C 4,6 C 2,4 C 89 % 1002,3 hPa 0,0 l/m 0,17 h 0,00 h 128 W/m 15,2 km/h (3 Bft) 96,35 %
02.12.2021 13:00 3,7 C 3,4 C 1,9 C 88 % 1002,8 hPa 0,0 l/m 0,00 h 0,00 h 53 W/m 13,5 km/h (3 Bft) 97,50 %
02.12.2021 14:00 3,9 C 3,6 C 1,9 C 88 % 1003,3 hPa 0,0 l/m 0,00 h 0,00 h 40 W/m 13,2 km/h (3 Bft) 98,29 %
02.12.2021 15:00 4,1 C 3,9 C 1,9 C 88 % 1004,0 hPa 0,0 l/m 0,20 h 0,00 h 38 W/m 15,5 km/h (3 Bft) 97,09 %
02.12.2021 16:00 3,5 C 2,9 C 0,9 C 89 % 1005,2 hPa 0,0 l/m 0,13 h 0,00 h 13 W/m 15,4 km/h (3 Bft) 96,40 %
02.12.2021 17:00 2,5 C 1,6 C -0,2 C 91 % 1006,4 hPa 0,0 l/m 0,00 h 0,00 h 0 W/m 8,3 km/h (2 Bft) 98,08 %
02.12.2021 18:00 1,8 C 0,9 C -0,8 C 92 % 1007,5 hPa 0,0 l/m 0,00 h 0,00 h 0 W/m 6,0 km/h (2 Bft) 97,98 %
02.12.2021 19:00 1,0 C 0,0 C -1,5 C 93 % 1008,6 hPa 0,0 l/m 0,00 h 0,00 h 0 W/m 2,7 km/h (1 Bft) 96,67 %
02.12.2021 20:00 0,4 C -0,6 C -2,0 C 93 % 1009,4 hPa 0,0 l/m 0,00 h 0,00 h 0 W/m 2,5 km/h (1 Bft) 97,02 %
02.12.2021 21:00 0,4 C -0,4 C -1,6 C 94 % 1010,1 hPa 0,0 l/m 0,00 h 0,00 h 0 W/m 3,5 km/h (1 Bft) 97,51 %
02.12.2021 22:00 0,1 C -0,7 C -1,7 C 95 % 1010,7 hPa 0,0 l/m 0,00 h 0,00 h 0 W/m 4,3 km/h (1 Bft) 98,78 %
02.12.2021 23:00 -0,3 C -1,2 C -2,0 C 95 % 1011,1 hPa 0,0 l/m 0,00 h 0,00 h 0 W/m 2,7 km/h (1 Bft) 95,66 %
03.12.2021 00:00 -0,6 C -1,7 C -2,2 C 95 % 1011,4 hPa 0,0 l/m 0,00 h 0,00 h 0 W/m 2,4 km/h (1 Bft) 97,69 %
03.12.2021 01:00 -0,5 C -1,1 C -1,9 C 96 % 1011,4 hPa 0,0 l/m 0,00 h 0,00 h 0 W/m 6,0 km/h (2 Bft) 98,79 %
03.12.2021 02:00 0,3 C -0,2 C -1,1 C 96 % 1011,6 hPa 0,0 l/m 0,00 h 0,00 h 0 W/m 11,1 km/h (2 Bft) 96,23 %
03.12.2021 03:00 0,8 C 0,5 C -0,5 C 97 % 1011,7 hPa 0,2 l/m 0,00 h 0,00 h 0 W/m 13,4 km/h (3 Bft) 97,92 %
03.12.2021 04:00 1,0 C 0,6 C 0,0 C 97 % 1011,8 hPa 0,0 l/m 0,00 h 0,00 h 0 W/m 11,5 km/h (2 Bft) 97,01 %
03.12.2021 05:00 1,3 C 1,0 C 0,2 C 97 % 1011,4 hPa 0,0 l/m 0,00 h 0,00 h 0 W/m 13,2 km/h (3 Bft) 98,29 %
03.12.2021 06:00 1,5 C 1,2 C 0,6 C 97 % 1011,4 hPa 0,0 l/m 0,00 h 0,00 h 0 W/m 13,7 km/h (3 Bft) 94,48 %
03.12.2021 07:00 2,0 C 1,7 C 1,0 C 96 % 1011,4 hPa 0,0 l/m 0,00 h 0,00 h 0 W/m 15,3 km/h (3 Bft) 97,65 %
03.12.2021 08:00 2,1 C 1,7 C 1,1 C 95 % 1011,2 hPa 0,0 l/m 0,00 h 0,00 h 7 W/m 16,7 km/h (3 Bft) 97,86 %
03.12.2021 09:00 2,3 C 2,1 C 1,2 C 92 % 1011,1 hPa 0,0 l/m 0,00 h 0,00 h 33 W/m 18,2 km/h (3 Bft) 96,02 %
03.12.2021 10:00 3,0 C 2,9 C 1,7 C 89 % 1010,9 hPa 0,0 l/m 0,00 h 0,00 h 69 W/m 24,3 km/h (4 Bft) 98,44 %
03.12.2021 11:00 3,4 C 3,3 C 1,7 C 86 % 1010,5 hPa 0,0 l/m 0,00 h 0,00 h 75 W/m 25,8 km/h (4 Bft) 99,00 %
03.12.2021 12:00 3,8 C 3,7 C 1,9 C 84 % 1009,4 hPa 0,0 l/m 0,00 h 0,00 h 70 W/m 30,6 km/h (5 Bft) 95,11 %
03.12.2021 13:00 4,5 C 4,2 C 2,2 C 83 % 1008,5 hPa 0,0 l/m 0,00 h 0,00 h 94 W/m 30,4 km/h (5 Bft) 99,36 %
03.12.2021 14:00 4,8 C 4,4 C 2,2 C 81 % 1007,6 hPa 0,0 l/m 0,00 h 0,00 h 68 W/m 33,2 km/h (5 Bft) 94,91 %
03.12.2021 15:00 4,6 C 4,2 C 1,5 C 81 % 1007,0 hPa 0,0 l/m 0,00 h 0,00 h 18 W/m 31,1 km/h (5 Bft) 97,22 %
03.12.2021 16:00 4,4 C 3,9 C 1,3 C 83 % 1006,6 hPa 0,0 l/m 0,00 h 0,00 h 4 W/m 28,3 km/h (4 Bft) 98,51 %
03.12.2021 17:00 4,4 C 3,9 C 1,1 C 85 % 1006,1 hPa 0,0 l/m 0,00 h 0,00 h 0 W/m 26,3 km/h (4 Bft) 97,15 %
03.12.2021 18:00 4,4 C 3,8 C 1,1 C 86 % 1005,8 hPa 0,0 l/m 0,00 h 0,00 h 0 W/m 24,6 km/h (4 Bft) 97,57 %
03.12.2021 19:00 4,0 C 3,3 C 0,9 C 90 % 1004,8 hPa 0,0 l/m 0,00 h 0,00 h 0 W/m 19,3 km/h (3 Bft) 99,36 %
03.12.2021 20:00 4,1 C 3,7 C 1,3 C 90 % 1004,1 hPa 0,0 l/m 0,00 h 0,00 h 0 W/m 13,3 km/h (3 Bft) 93,85 %
03.12.2021 21:00 4,5 C 4,1 C 1,7 C 87 % 1003,8 hPa 0,0 l/m 0,00 h 0,00 h 0 W/m 14,2 km/h (3 Bft) 98,28 %
03.12.2021 22:00 4,3 C 3,5 C 1,0 C 90 % 1003,2 hPa 0,2 l/m 0,00 h 0,00 h 0 W/m 16,1 km/h (3 Bft) 96,00 %
03.12.2021 23:00 4,0 C 3,3 C 1,1 C 93 % 1002,7 hPa 0,0 l/m 0,00 h 0,03 h 0 W/m 8,4 km/h (2 Bft) 97,44 %
04.12.2021 00:00 3,7 C 2,8 C 0,7 C 94 % 1001,9 hPa 0,4 l/m 0,00 h 0,13 h 0 W/m 9,4 km/h (2 Bft) 95,39 %
04.12.2021 01:00 3,5 C 2,8 C 1,0 C 95 % 1001,1 hPa 0,0 l/m 0,00 h 0,00 h 0 W/m 9,8 km/h (2 Bft) 95,37 %
04.12.2021 02:00 3,5 C 3,0 C 1,1 C 96 % 1000,5 hPa 0,2 l/m 0,00 h 0,50 h 0 W/m 10,4 km/h (2 Bft) 97,86 %
04.12.2021 03:00 3,5 C 3,3 C 1,1 C 96 % 1000,0 hPa 0,2 l/m 0,00 h 0,13 h 0 W/m 12,9 km/h (3 Bft) 95,80 %
04.12.2021 04:00 3,6 C 3,3 C 1,3 C 96 % 999,0 hPa 0,0 l/m 0,00 h 0,00 h 0 W/m 13,8 km/h (3 Bft) 97,77 %
04.12.2021 05:00 3,6 C 3,3 C 1,7 C 96 % 998,6 hPa 0,0 l/m 0,00 h 0,00 h 0 W/m 11,7 km/h (2 Bft) 97,37 %
04.12.2021 06:00 3,5 C 3,3 C 1,7 C 96 % 998,2 hPa 0,0 l/m 0,00 h 0,00 h 0 W/m 13,6 km/h (3 Bft) 95,66 %
04.12.2021 07:00 3,6 C 3,3 C 1,7 C 96 % 998,0 hPa 0,0 l/m 0,00 h 0,00 h 0 W/m 12,2 km/h (2 Bft) 98,33 %
04.12.2021 08:00 3,6 C 3,3 C 1,7 C 96 % 998,0 hPa 0,0 l/m 0,00 h 0,00 h 6 W/m 11,2 km/h (2 Bft) 97,51 %
04.12.2021 09:00 3,8 C 3,5 C 2,1 C 96 % 997,8 hPa 0,0 l/m 0,00 h 0,00 h 29 W/m 13,4 km/h (3 Bft) 96,22 %
04.12.2021 10:00 4,0 C 4,3 C 2,5 C 96 % 997,3 hPa 0,0 l/m 0,23 h 0,00 h 89 W/m 15,8 km/h (3 Bft) 98,40 %
04.12.2021 11:00 4,6 C 4,9 C 3,2 C 95 % 996,6 hPa 0,0 l/m 0,07 h 0,00 h 104 W/m 15,8 km/h (3 Bft) 97,65 %
04.12.2021 12:00 4,9 C 4,9 C 3,3 C 94 % 995,4 hPa 0,0 l/m 0,00 h 0,00 h 76 W/m 15,0 km/h (3 Bft) 97,54 %
04.12.2021 13:00 6,0 C 5,2 C 3,3 C 94 % 994,5 hPa 0,0 l/m 0,00 h 0,13 h 66 W/m 11,2 km/h (2 Bft) 96,51 %
04.12.2021 14:00 6,0 C 4,5 C 2,7 C 93 % 994,4 hPa 1,6 l/m 0,00 h 1,00 h 26 W/m 5,9 km/h (2 Bft) 98,72 %
04.12.2021 15:00 5,7 C 4,1 C 2,8 C 95 % 994,6 hPa 2,0 l/m 0,00 h 1,00 h 9 W/m 3,6 km/h (1 Bft) 95,94 %
04.12.2021 16:00 5,5 C 3,9 C 2,8 C 96 % 995,2 hPa 1,6 l/m 0,00 h 0,97 h 0 W/m 8,6 km/h (2 Bft) 98,50 %
04.12.2021 17:00 5,7 C 4,2 C 2,8 C 97 % 995,9 hPa 0,2 l/m 0,00 h 0,07 h 0 W/m 11,2 km/h (2 Bft) 96,75 %
04.12.2021 18:00 5,9 C 4,4 C 3,2 C 98 % 996,7 hPa 0,0 l/m 0,00 h 0,17 h 0 W/m 15,6 km/h (3 Bft) 95,85 %
04.12.2021 19:00 5,5 C 4,1 C 2,7 C 97 % 997,4 hPa 0,0 l/m 0,00 h 0,00 h 0 W/m 14,1 km/h (3 Bft) 98,93 %
04.12.2021 20:00 5,0 C 3,6 C 2,2 C 97 % 998,1 hPa 0,0 l/m 0,00 h 0,00 h 0 W/m 12,1 km/h (2 Bft) 98,22 %
04.12.2021 21:00 4,8 C 3,4 C 2,2 C 96 % 998,4 hPa 0,0 l/m 0,00 h 0,00 h 0 W/m 14,2 km/h (3 Bft) 96,12 %
04.12.2021 22:00 4,8 C 3,4 C 2,2 C 96 % 998,8 hPa 0,0 l/m 0,00 h 0,00 h 0 W/m 15,7 km/h (3 Bft) 97,94 %
04.12.2021 23:00 4,7 C 3,3 C 1,8 C 94 % 999,0 hPa 0,0 l/m 0,00 h 0,00 h 0 W/m 16,4 km/h (3 Bft) 96,56 %
05.12.2021 00:00 4,4 C 2,9 C 1,7 C 93 % 999,3 hPa 0,0 l/m 0,00 h 0,00 h 0 W/m 18,6 km/h (3 Bft) 96,94 %
05.12.2021 01:00 4,6 C 3,3 C 1,7 C 93 % 999,4 hPa 0,0 l/m 0,00 h 0,00 h 0 W/m 17,7 km/h (3 Bft) 97,58 %
05.12.2021 02:00 4,5 C 3,1 C 1,6 C 92 % 999,6 hPa 0,0 l/m 0,00 h 0,00 h 0 W/m 16,2 km/h (3 Bft) 98,22 %
05.12.2021 03:00 4,2 C 2,8 C 1,1 C 93 % 999,7 hPa 0,0 l/m 0,00 h 0,00 h 0 W/m 14,6 km/h (3 Bft) 97,65 %
05.12.2021 04:00 4,0 C 2,6 C 1,1 C 93 % 999,5 hPa 0,0 l/m 0,00 h 0,00 h 0 W/m 13,7 km/h (3 Bft) 96,95 %
05.12.2021 05:00 3,5 C 2,2 C 0,6 C 93 % 999,4 hPa 0,0 l/m 0,00 h 0,00 h 0 W/m 10,4 km/h (2 Bft) 99,29 %
05.12.2021 06:00 3,2 C 1,8 C 0,6 C 94 % 999,5 hPa 0,0 l/m 0,00 h 0,00 h 0 W/m 9,1 km/h (2 Bft) 96,96 %
05.12.2021 07:00 3,6 C 2,7 C 1,5 C 94 % 999,9 hPa 0,0 l/m 0,00 h 0,00 h 0 W/m 10,4 km/h (2 Bft) 96,03 %
05.12.2021 08:00 3,9 C 2,8 C 1,7 C 93 % 1000,3 hPa 0,0 l/m 0,00 h 0,00 h 9 W/m 12,5 km/h (3 Bft) 97,08 %
05.12.2021 09:00 4,0 C 2,8 C 1,7 C 93 % 1000,9 hPa 0,2 l/m 0,00 h 0,20 h 13 W/m 9,8 km/h (2 Bft) 98,02 %
05.12.2021 10:00 4,2 C 3,1 C 1,5 C 93 % 1001,5 hPa 0,0 l/m 0,00 h 0,40 h 46 W/m 9,8 km/h (2 Bft) 96,56 %
05.12.2021 11:00 4,8 C 4,0 C 2,1 C 94 % 1002,1 hPa 0,4 l/m 0,00 h 0,77 h 97 W/m 10,5 km/h (2 Bft) 97,79 %
05.12.2021 12:00 5,6 C 5,5 C 2,8 C 94 % 1002,3 hPa 0,0 l/m 0,67 h 0,15 h 166 W/m 11,1 km/h (2 Bft) 97,98 %
05.12.2021 13:00 6,4 C 7,1 C 3,4 C 91 % 1002,5 hPa 0,0 l/m 0,67 h 0,00 h 172 W/m 11,4 km/h (2 Bft) 96,08 %
05.12.2021 14:00 6,5 C 5,2 C 3,4 C 88 % 1003,0 hPa 0,0 l/m 0,00 h 0,00 h 37 W/m 6,7 km/h (2 Bft) 99,00 %
05.12.2021 15:00 6,3 C 4,8 C 3,1 C 89 % 1003,9 hPa 0,0 l/m 0,00 h 0,00 h 14 W/m 4,5 km/h (1 Bft) 96,88 %
05.12.2021 16:00 5,7 C 4,3 C 2,7 C 91 % 1004,7 hPa 0,0 l/m 0,00 h 0,00 h 9 W/m 1,5 km/h (1 Bft) 96,58 %
05.12.2021 17:00 5,4 C 3,4 C 1,9 C 91 % 1005,6 hPa 0,0 l/m 0,00 h 0,00 h 0 W/m 0,0 km/h (0 Bft) 98,79 %
05.12.2021 18:00 5,1 C 3,5 C 2,2 C 92 % 1006,5 hPa 0,0 l/m 0,00 h 0,10 h 0 W/m 0,6 km/h (0 Bft) 95,59 %
05.12.2021 19:00 5,2 C 3,7 C 2,1 C 94 % 1007,4 hPa 0,2 l/m 0,00 h 0,80 h 0 W/m 0,5 km/h (0 Bft) 97,22 %
05.12.2021 20:00 5,0 C 3,3 C 1,7 C 95 % 1008,2 hPa 0,2 l/m 0,00 h 0,57 h 0 W/m 1,9 km/h (1 Bft) 96,55 %
05.12.2021 21:00 4,7 C 3,2 C 1,7 C 96 % 1008,9 hPa 0,0 l/m 0,00 h 0,23 h 0 W/m 0,4 km/h (0 Bft) 97,72 %
05.12.2021 22:00 4,6 C 3,3 C 1,8 C 96 % 1009,7 hPa 0,0 l/m 0,00 h 0,07 h 0 W/m 2,7 km/h (1 Bft) 97,58 %
05.12.2021 23:00 4,5 C 3,0 C 2,2 C 97 % 1010,5 hPa 0,2 l/m 0,00 h 0,20 h 0 W/m 0,5 km/h (0 Bft) 97,22 %
Min-Datum _ 03.12.21 02.12.21 29.11.21 03.12.21 01.12.21 - - - - 29.11.21 30.11.21
_ Min-Zeit 00:26 23:46 00:30 14:40 11:58 - - - - 00:22 03:24
Minimum _ -0,7 C -1,7 C -2,2 C 80 % 991,3 hPa - - - - 0,0 km/h (0 Bft) 30,00 %
Max-Datum _ 30.11.21 05.12.21 30.11.21 30.11.21 29.11.21 04.12.21 05.12.21 01.12.21 05.12.21 01.12.21 29.11.21
_ Max-Zeit 23:16 13:22 20:08 08:32 22:52 15:02 12:07 00:08 13:22 08:22 01:36
Maximum _ 9,3 C 11,1 C 8,3 C 98 % 1012,9 hPa 2,0 l/m 0,05 h 0,07 h 352 W/m 74,0 km/h
S-SW (8 Bft)
100,00 %
Durchschnitt _ 4,5 C 3,9 C 2,5 C 94 % 1003,5 hPa #19,0 l/m #3:12 h #20:44 h 48 W/m 14,8 km/h (3 Bft) 97,14 %
© 2021 W. Hausmann